Regional Weather Roundup
Issued by NWS

Home | Current Version | Previous Version | Text Only | Print | Product List | Glossary Off
Versions: 1 2 3 4 5 6 7 8 9 10 11 12 13 14 15 16 17 18 19 20 21 22 23 24 25 26 27 28 29 30 31 32 33 34 35 36 37 38 39 40 41 42 43 44 45 46 47 48 49 50

274
ASUS43 KBIS 172002
RWRND

NORTH DAKOTA REGIONAL WEATHER ROUNDUP
NATIONAL WEATHER SERVICE BISMARCK ND
200 PM CST SAT FEB 17 2018

NOTE: "FAIR" INDICATES FEW OR NO CLOUDS BELOW 12,000 FEET WITH NO
SIGNIFICANT WEATHER AND/OR OBSTRUCTIONS TO VISIBILITY.


NDZ001>003-009>011-017-172100-
NORTHWEST NORTH DAKOTA

CITY           SKY/WX    TMP DP  RH WIND       PRES   REMARKS
WILLISTON      SUNNY     17   6  62 NW13      29.98F WCI   4
MINOT          PTSUNNY   20   9  62 W18G25    29.93S WCI   5
MINOT AFB      PTSUNNY   19   8  63 W21G28    29.92R WCI   2
$$

NDZ018>021-031>035-040>046-172100-
SOUTHWEST NORTH DAKOTA

CITY           SKY/WX    TMP DP  RH WIND       PRES   REMARKS
BISMARCK       MOSUNNY   24  11  57 NW14      30.00S WCI  12
DICKINSON      SUNNY     19   8  62 W14       29.95S WCI   6
GARRISON         N/A     20   8  60 W18G28    29.95S WCI   5
HETTINGER ARPT SUNNY     18   8  65 NW22      29.98F WCI   1
$$

NDZ004>008-012>016-024-026-027-054-172100-
NORTHEAST NORTH DAKOTA

CITY           SKY/WX    TMP DP  RH WIND       PRES   REMARKS
GRAND FORKS    FAIR      22   9  57 NW18      29.93R WCI   7
GRND FRKS AFB  FAIR      22   4  46 NW15      29.93R WCI   8
DEVILS LAKE    FAIR      18   9  68 W18       29.91F WCI   2
$$

NDZ022-023-025-028>030-036>039-047>053-172100-
SOUTHEAST NORTH DAKOTA

CITY           SKY/WX    TMP DP  RH WIND       PRES   REMARKS
FARGO          FAIR      24  11  57 NW20      29.97R WCI  10
JAMESTOWN      SUNNY     23  10  57 NW15      29.95S WCI  10
$$





USA.gov is the U.S. government's official web portal to all federal, state and local government web resources and services.